KA4JMC Weather Reports


Display with metric or nautical units.
time (UTC)temp
F
wind
direction
speed
MPH
gust
MPH
rain 1hr
in
rain 24hr
in
rain mn
in
humidity
%
barometer
mb
20260502223015 55 268 0.0 0.0 0.00 0.00 0.00 990.8
20260502222514 55 230 0.0 0.0 0.00 0.00 0.00 990.8
20260502222013 55 270 0.0 4.0 0.00 0.00 0.00 990.8
20260502221517 55 341 0.0 3.0 0.00 0.00 0.00 990.8
20260502221034 55 258 0.0 3.0 0.00 0.00 0.00 990.8
20260502220515 55 212 3.0 4.0 0.00 0.00 0.00 990.8
20260502220015 55 235 2.0 5.0 0.00 0.00 0.00 990.8
20260502215515 54 206 0.0 0.0 0.00 0.00 0.00 990.8
20260502215015 54 219 3.0 4.0 0.00 0.00 0.00 990.8
20260502214513 54 273 0.0 0.0 0.00 0.00 0.00 990.8
20260502214013 55 225 4.0 4.0 0.00 0.00 0.00 990.8
20260502213520 55 313 0.0 0.0 0.00 0.00 0.00 990.8
20260502213013 55 292 0.0 0.0 0.00 0.00 0.00 990.8
20260502212513 55 217 4.0 5.0 0.00 0.00 0.00 990.8
20260502212013 54 340 0.0 0.0 0.00 0.00 0.00 990.8
20260502211513 54 258 0.0 0.0 0.00 0.00 0.00 990.8
20260502211013 54 255 0.0 6.0 0.00 0.00 0.00 990.8
20260502210519 54 220 0.0 5.0 0.00 0.00 0.00 990.8
20260502210014 54 343 2.0 5.0 0.00 0.00 0.00 990.8
20260502205514 54 318 0.0 3.0 0.00 0.00 0.00 990.8
20260502205018 54 231 0.0 0.0 0.00 0.00 0.00 990.8
20260502204514 54 224 0.0 3.0 0.00 0.00 0.00 991.8
20260502204014 54 333 0.0 3.0 0.00 0.00 0.00 991.8
20260502203513 54 229 5.0 4.0 0.00 0.00 0.00 991.8
20260502203015 54 195 0.0 4.0 0.00 0.00 0.00 991.8
20260502202515 54 175 0.0 0.0 0.00 0.00 0.00 991.8
20260502202013 55 228 0.0 0.0 0.00 0.00 0.00 991.8
20260502201513 55 232 0.0 0.0 0.00 0.00 0.00 991.8
20260502201013 55 318 0.0 0.0 0.00 0.00 0.00 991.8
20260502200513 55 221 2.0 0.0 0.00 0.00 0.00 991.8
20260502200015 56 288 0.0 0.0 0.00 0.00 0.00 991.8
20260502195518 55 26 0.0 0.0 0.00 0.00 0.00 991.8
20260502195013 55 291 2.0 3.0 0.00 0.00 0.00 991.8
20260502194514 55 334 5.0 3.0 0.00 0.00 0.00 991.8
20260502193513 56 103 0.0 4.0 0.00 0.00 0.00 991.8
20260502193016 56 19 3.0 3.0 0.00 0.00 0.00 992.8
20260502192513 55 263 2.0 0.0 0.00 0.00 0.00 992.8
20260502192013 55 343 0.0 0.0 0.00 0.00 0.00 992.8
20260502191519 54 301 0.0 2.0 0.00 0.00 0.00 992.8
20260502191013 54 341 0.0 0.0 0.00 0.00 0.00 992.8
20260502190517 54 353 0.0 0.0 0.00 0.00 0.00 992.8
20260502190013 54 276 2.0 6.0 0.00 0.00 0.00 992.8
20260502185535 54 344 0.0 3.0 0.00 0.00 0.00 992.8
20260502185035 54 341 0.0 0.0 0.00 0.00 0.00 992.8
20260502184519 55 353 0.0 0.0 0.00 0.00 0.00 992.8
20260502184013 55 335 4.0 4.0 0.00 0.00 0.00 992.8
20260502183515 56 336 5.0 5.0 0.00 0.00 0.00 992.8
20260502183023 56 226 0.0 0.0 0.00 0.00 0.00 992.8
20260502182515 56 292 3.0 0.0 0.00 0.00 0.00 992.8
20260502182018 55 343 2.0 3.0 0.00 0.00 0.00 992.8
20260502181515 55 312 0.0 0.0 0.00 0.00 0.00 992.8
20260502181014 56 342 0.0 0.0 0.00 0.00 0.00 992.8
20260502180515 56 32 4.0 3.0 0.00 0.00 0.00 992.8
20260502170514 56 343 4.0 3.0 0.00 0.00 0.00 993.8
20260502164014 56 334 6.0 3.0 0.00 0.00 0.00 994.8
20260502163519 56 327 3.0 0.0 0.00 0.00 0.00 994.8
20260502163027 56 306 0.0 4.0 0.00 0.00 0.00 993.8
20260502162513 56 337 4.0 4.0 0.00 0.00 0.00 993.8
20260502162013 55 298 0.0 0.0 0.00 0.00 0.00 993.8
20260502161537 55 276 0.0 0.0 0.00 0.00 0.00 993.8
20260502161015 56 253 3.0 0.0 0.00 0.00 0.00 993.8
20260502160514 55 210 4.0 4.0 0.00 0.00 0.00 993.8
20260502152013 54 273 0.0 0.0 0.00 0.00 0.00 993.8
20260502151534 53 272 3.0 0.0 0.00 0.00 0.00 993.8
20260502151014 53 221 0.0 0.0 0.00 0.00 0.00 993.8
20260502150515 53 220 0.0 0.0 0.00 0.00 0.00 993.8
20260502130520 42 286 0.0 0.0 0.00 0.00 0.00 993.8
20260502123513 37 70 0.0 0.0 0.00 0.00 0.00 993.8
20260502123026 37 70 0.0 0.0 0.00 0.00 0.00 993.8
20260502122515 36 70 0.0 0.0 0.00 0.00 0.00 993.8
20260502122013 36 70 0.0 0.0 0.00 0.00 0.00 993.8
20260502121514 35 70 0.0 0.0 0.00 0.00 0.00 993.8
20260502121012 35 70 0.0 0.0 0.00 0.00 0.00 993.8
20260502120513 34 70 0.0 0.0 0.00 0.00 0.00 993.8
20260502115515 33 70 0.0 0.0 0.00 0.00 0.00 992.8
20260502115013 33 70 0.0 0.0 0.00 0.00 0.00 992.8
20260502114515 32 70 0.0 0.0 0.00 0.00 0.00 993.8
20260502114013 31 70 0.0 0.0 0.00 0.00 0.00 993.8
20260502113516 31 70 0.0 0.0 0.00 0.00 0.00 993.8
20260502113013 30 70 0.0 0.0 0.00 0.00 0.00 992.8
20260502112515 30 70 0.0 0.0 0.00 0.00 0.00 992.8
20260502112021 30 70 0.0 0.0 0.00 0.00 0.00 992.8
20260502111521 30 70 0.0 0.0 0.00 0.00 0.00 992.8
20260502111014 30 70 0.0 0.0 0.00 0.00 0.00 992.8
20260502110514 30 70 0.0 0.0 0.00 0.00 0.00 992.8
20260502110013 30 70 0.0 0.0 0.00 0.00 0.00 992.8
20260502105513 30 70 0.0 0.0 0.00 0.00 0.00 992.8
20260502105014 30 70 0.0 0.0 0.00 0.00 0.00 992.8
20260502104520 30 70 0.0 0.0 0.00 0.00 0.00 992.8
20260502104019 30 70 0.0 0.0 0.00 0.00 0.00 992.8
20260502103520 31 70 0.0 0.0 0.00 0.00 0.00 992.8
20260502103023 31 70 0.0 0.0 0.00 0.00 0.00 992.8
20260502102516 31 70 0.0 0.0 0.00 0.00 0.00 992.8
20260502102015 31 70 0.0 0.0 0.00 0.00 0.00 992.8
20260502101535 31 70 0.0 0.0 0.00 0.00 0.00 991.8
20260502101014 30 70 0.0 0.0 0.00 0.00 0.00 991.8
20260502100513 31 70 0.0 0.0 0.00 0.00 0.00 991.8
20260502091013 31 70 0.0 0.0 0.00 0.00 0.00 992.8
20260502090514 31 70 0.0 0.0 0.00 0.00 0.00 992.8
20260502071535 33 70 0.0 0.0 0.00 0.00 0.00 992.8
20260502071015 33 70 0.0 0.0 0.00 0.00 0.00 992.8
20260502070515 32 70 0.0 0.0 0.00 0.00 0.00 992.8
20260502070017 32 70 0.0 0.0 0.00 0.00 0.00 993.8
20260502065534 32 70 0.0 0.0 0.00 0.00 0.00 993.8
20260502065022 32 70 0.0 0.0 0.00 0.00 0.00 993.8
20260502064515 32 70 0.0 0.0 0.00 0.00 0.00 992.8
20260502064020 32 70 0.0 0.0 0.00 0.00 0.00 992.8
20260502063513 32 70 0.0 0.0 0.00 0.00 0.00 992.8
20260502063018 32 70 0.0 0.0 0.00 0.00 0.00 993.8
20260502062513 32 70 0.0 0.0 0.00 0.00 0.00 993.8
20260502062013 33 70 0.0 0.0 0.00 0.00 0.00 993.8
20260502061515 33 70 0.0 0.0 0.00 0.00 0.00 993.8
20260502061013 33 70 0.0 0.0 0.00 0.00 0.00 993.8
20260502060520 33 70 0.0 0.0 0.00 0.00 0.00 993.8
20260502060027 33 70 0.0 0.0 0.00 0.00 0.00 993.8
20260502055534 33 70 0.0 0.0 0.00 0.00 0.00 993.8
20260502055024 33 70 0.0 0.0 0.00 0.00 0.00 993.8
20260502054514 33 70 0.0 0.0 0.00 0.00 0.00 993.8
20260502054020 33 70 0.0 0.0 0.00 0.00 0.00 993.8
20260502053514 33 70 0.0 0.0 0.00 0.00 0.00 993.8
20260502053014 33 70 0.0 0.0 0.00 0.00 0.00 993.8
20260502052513 33 70 0.0 0.0 0.00 0.00 0.00 993.8
20260502052013 33 70 0.0 0.0 0.00 0.00 0.00 993.8
20260502051522 33 70 0.0 0.0 0.00 0.00 0.00 993.8
20260502051016 33 70 0.0 0.0 0.00 0.00 0.00 993.8
20260502050519 33 70 0.0 0.0 0.00 0.00 0.00 993.8
20260502050016 33 70 0.0 0.0 0.00 0.00 0.00 993.8
20260502045514 33 70 0.0 0.0 0.00 0.00 0.00 993.8
20260502045016 33 70 0.0 0.0 0.00 0.00 0.00 993.8
20260502044513 33 70 0.0 0.0 0.00 0.00 0.00 992.8
20260502044013 33 70 0.0 0.0 0.00 0.00 0.00 992.8
20260502043514 33 70 0.0 0.0 0.00 0.00 0.00 992.8
20260502043022 33 70 0.0 0.0 0.00 0.00 0.00 992.8
20260502042514 33 70 0.0 0.0 0.00 0.00 0.00 992.8
20260502042021 33 70 0.0 0.0 0.00 0.00 0.00 992.8
20260502041527 33 70 0.0 0.0 0.00 0.00 0.00 993.8
20260502041015 33 70 0.0 0.0 0.00 0.00 0.00 993.8
20260502040515 34 70 0.0 0.0 0.00 0.00 0.00 993.8
20260502040036 34 70 0.0 0.0 0.00 0.00 0.00 993.8
20260502035514 34 70 0.0 0.0 0.00 0.00 0.00 993.8
20260502035014 33 70 0.0 0.0 0.00 0.00 0.00 993.8
20260502034519 34 70 0.0 0.0 0.00 0.00 0.00 993.8
20260502034026 34 70 0.0 0.0 0.00 0.00 0.00 993.8
20260502033518 34 70 0.0 0.0 0.00 0.00 0.00 993.8
20260502033025 34 70 0.0 0.0 0.00 0.00 0.00 992.8
20260502032535 34 70 0.0 0.0 0.00 0.00 0.00 992.8
20260502032014 35 70 0.0 0.0 0.00 0.00 0.00 992.8
20260502031514 35 70 0.0 0.0 0.00 0.00 0.00 993.8
20260502031013 35 70 0.0 0.0 0.00 0.00 0.00 993.8
20260502030513 35 70 0.0 0.0 0.00 0.00 0.00 993.8
20260502030023 35 70 0.0 0.0 0.00 0.00 0.00 992.8
20260502025524 35 70 0.0 0.0 0.00 0.00 0.00 992.8
20260502025014 35 70 0.0 0.0 0.00 0.00 0.00 992.8
20260502024514 36 70 0.0 0.0 0.00 0.00 0.00 992.8
20260502024014 36 70 0.0 0.0 0.00 0.00 0.00 992.8
20260502023513 36 70 0.0 0.0 0.00 0.00 0.00 992.8
20260502023022 36 70 0.0 0.0 0.00 0.00 0.00 992.8
20260502022513 36 70 0.0 0.0 0.00 0.00 0.00 992.8
20260502022018 36 70 0.0 0.0 0.00 0.00 0.00 992.8
20260502021516 36 70 0.0 0.0 0.00 0.00 0.00 992.8
20260502021022 37 70 0.0 0.0 0.00 0.00 0.00 992.8
20260502020513 37 70 0.0 0.0 0.00 0.00 0.00 992.8
20260502020018 37 70 0.0 0.0 0.00 0.00 0.00 992.8
20260502015514 38 70 0.0 0.0 0.00 0.00 0.00 992.8
20260502015013 38 70 0.0 0.0 0.00 0.00 0.00 992.8
20260502014534 38 70 0.0 0.0 0.00 0.00 0.00 992.8
20260502014013 38 70 0.0 0.0 0.00 0.00 0.00 992.8
20260502013513 38 70 0.0 0.0 0.00 0.00 0.00 992.8
20260502013036 38 70 0.0 0.0 0.00 0.00 0.00 992.8
20260502012514 38 70 0.0 0.0 0.00 0.00 0.00 992.8
20260502012017 38 70 0.0 0.0 0.00 0.00 0.00 992.8
20260502011538 39 70 0.0 0.0 0.00 0.00 0.00 992.8
20260502011015 39 70 0.0 0.0 0.00 0.00 0.00 992.8
20260502010514 39 70 0.0 0.0 0.00 0.00 0.00 992.8
20260502010021 39 70 0.0 0.0 0.00 0.00 0.00 992.8
20260502005535 39 70 0.0 0.0 0.00 0.00 0.00 992.8
20260502005015 39 70 0.0 0.0 0.00 0.00 0.00 992.8
20260502004515 40 70 0.0 0.0 0.00 0.00 0.00 992.8
20260502004038 40 70 0.0 0.0 0.00 0.00 0.00 992.8
20260502003523 40 70 0.0 0.0 0.00 0.00 0.00 992.8
20260502003016 40 70 0.0 0.0 0.00 0.00 0.00 992.8
20260502002513 40 70 0.0 0.0 0.00 0.00 0.00 992.8
20260502002015 40 70 0.0 0.0 0.00 0.00 0.00 992.8
20260502001514 40 70 0.0 0.0 0.00 0.00 0.00 992.8
20260502001018 40 70 0.0 0.0 0.00 0.00 0.00 992.8
20260502000515 40 70 0.0 0.0 0.00 0.00 0.00 992.8
20260502000024 41 70 0.0 0.0 0.00 0.00 0.00 992.8
20260501235513 40 70 0.0 0.0 0.00 0.00 0.00 992.8
20260501235018 40 70 0.0 0.0 0.00 0.00 0.00 992.8
20260501234514 40 70 0.0 0.0 0.00 0.00 0.00 991.8
20260501234014 40 70 0.0 0.0 0.00 0.00 0.00 991.8
20260501233514 40 70 0.0 0.0 0.00 0.00 0.00 991.8
20260501233036 40 70 0.0 0.0 0.00 0.00 0.00 991.8
20260501232514 40 70 0.0 0.0 0.00 0.00 0.00 991.8
20260501232014 40 70 0.0 0.0 0.00 0.00 0.00 991.8
20260501231514 40 64 0.0 0.0 0.00 0.00 0.00 991.8
20260501231013 40 60 0.0 0.0 0.00 0.00 0.00 991.8
20260501230521 41 37 0.0 0.0 0.00 0.00 0.00 991.8
20260501230025 42 46 0.0 0.0 0.00 0.00 0.00 991.8
20260501225514 42 46 0.0 0.0 0.00 0.00 0.00 991.8
20260501225013 43 40 0.0 0.0 0.00 0.00 0.00 991.8
20260501224514 44 73 0.0 0.0 0.00 0.00 0.00 991.8
20260501224013 44 177 0.0 0.0 0.00 0.00 0.00 991.8
20260501223513 45 178 0.0 0.0 0.00 0.00 0.00 991.8